[[{"header":{"parameterUnit":"m.s-1","parameterCategory":1,"la1":30.2991,"la2":30.254,"lo1":-89.0895,"lo2":-89.0444,"dx":0.0017,"dy":0.0017,"nx":28,"ny":28,"refTime":"2022-11-12T09:00:00:Z","depth":0,"parameterNumber":2,"parameterNumberName":"U-component_of_WINDS"},"data":[0,0,0,0,0,0,0,0,0,0,0,0,0,0,0,0,0,0,0,0,0,0,0,0,0,0,0,0,0,0,0,0,0,0,0,0,0,0,0,0,0,0,0,0,0,0,0,0,0,0,0,0,0,0,0,0,0,0,-5.8599,-5.8599,0,-5.8639,-5.8639,-5.8639,-5.8465,-5.846,-5.8455,-5.845,-5.849,-5.8496,-5.8501,0,0,0,0,0,0,0,0,0,0,0,0,0,-5.8371,-5.8376,-5.8599,-5.8599,-5.86,-5.8638,-5.8639,-5.864,-5.8466,-5.846,-5.8454,-5.8448,-5.8488,-5.8495,-5.8502,0,0,0,0,0,0,0,0,0,0,0,0,0,-5.8446,-5.8377,-5.8599,-5.8518,-5.8511,-5.8638,-5.8639,-5.864,-5.8467,-5.846,-5.8452,-5.8445,-5.8486,-5.8494,-5.8503,-5.8709,0,0,-5.8529,-5.8533,0,0,0,0,0,0,0,0,-5.8442,-5.8455,-5.8529,-5.8524,-5.8516,-5.8539,-5.8573,-5.8663,-5.8469,-5.8484,-5.845,-5.8441,-5.8512,-5.8518,-5.8543,-5.8711,-5.8713,-5.853,-5.8535,-5.8539,-5.8542,0,0,0,0,0,0,0,-5.8437,-5.8452,-5.8614,-5.8531,-5.8523,-5.8479,-5.8481,-5.8589,-5.8541,-5.8482,-5.847,-5.8477,-5.8507,-5.8535,-5.8542,-5.8714,-5.853,-5.8538,-5.8543,-5.8546,-5.905,-5.9058,0,0,0,0,0,0,-5.8443,-5.8449,-5.8613,-5.8616,-5.846,-5.8489,-5.8492,-5.854,-5.8539,-5.8531,-5.8483,-5.8468,-5.8524,-5.8532,-5.8543,-5.8781,-5.8539,-5.8547,-5.8552,-5.9042,-5.9052,-5.9061,0,0,0,0,0,0,-5.8439,-5.8459,-5.8612,-5.8529,-5.8545,-5.8501,-5.8556,-5.8544,-5.8571,-5.854,-5.853,-5.852,-5.8518,-5.8531,-5.8668,-5.8781,-5.8551,-5.8559,-5.9032,-5.9045,-5.9056,-5.9263,0,0,0,0,0,0,-5.8433,-5.8459,-5.8537,-5.8532,-5.855,-5.8738,-5.8563,-5.8551,-5.8587,-5.8568,-5.8572,-5.8565,-5.8513,-5.8657,-5.8677,-5.8788,-5.8566,-5.9022,-5.9038,-5.9052,-5.9246,-5.9281,-5.9311,0,0,0,0,0,-5.8425,-5.8595,-5.8542,-5.8563,-5.8648,-5.8745,-5.8755,-5.8692,-5.8597,-5.8674,-5.8654,-5.8565,-5.8766,-5.8672,-5.8694,-5.881,-5.9014,-5.9033,-5.9051,-5.9231,-5.9274,-5.931,0,0,0,0,0,0,-5.8614,-5.8592,-5.8534,-5.8707,-5.8729,-5.8715,-5.8811,-5.8739,-5.8788,-5.8769,-5.8688,-5.869,-5.8841,-5.8839,-5.8735,-5.9008,-5.8873,-5.8897,-5.9003,-5.9043,-5.9075,-5.9071,-5.8573,0,0,0,0,0,-5.8676,-5.8758,-5.8734,-5.8888,-5.8902,-5.8856,-5.8896,-5.8845,-5.8864,-5.8873,-5.8862,-5.8884,-5.8951,-5.8998,-5.9058,-5.9246,-5.9242,-5.9336,-5.9368,-5.9395,-5.9415,-5.9511,-5.9551,-5.9121,-5.9121,-5.912,0,0,-5.8805,-5.8803,-5.8859,-5.8926,-5.8937,-5.9022,-5.8865,-5.8962,-5.9023,-5.8887,-5.9015,-5.9009,-5.9028,-5.9191,-5.9262,-5.9194,-5.9534,-5.9418,-5.944,-5.9445,-5.9534,-5.9575,-5.9611,-5.9133,-5.9131,-5.9129,0,0,-5.9081,-5.9089,-5.9217,-5.9231,-5.925,-5.9217,-5.9249,-5.9246,-5.9236,-5.9364,-5.9263,-5.9335,-5.9454,-5.947,-5.9495,-5.9777,-5.9695,-5.9799,-5.9967,-6.0061,-6.0095,-6.0124,-6.0222,-6.0258,-5.982,-5.9821,-5.9821,0,-5.9238,-5.9361,-5.9292,-5.9395,-5.9426,-5.9308,-5.9436,-5.9453,-5.9491,-5.9515,-5.9439,-5.9584,-5.9589,-5.9751,-5.982,-5.9845,-5.9876,-5.9797,-6.0096,-6.0125,-6.0151,-6.0243,-6.028,-5.9833,-5.9832,-5.983,-5.9829,0,-5.9552,-5.9639,-5.974,-5.9779,-5.9822,-5.9938,-5.9884,-5.9936,-5.9883,-5.9858,-5.9988,-5.999,-6.0047,-6.0083,-6.0032,-6.0239,-6.0196,-6.011,-5.9972,-6.0206,-6.029,-6.0325,-5.985,-5.9846,-5.9842,-5.9839,0,0,-5.9946,-5.9945,-5.9983,-5.9997,-6.0009,-6.0075,-6.0185,-6.024,-6.0285,-6.0316,-6.0403,-6.0507,-6.0426,-6.0454,-6.0403,-6.0487,-6.0706,-6.0389,-6.0388,-6.0445,-6.093,-6.0992,-6.1034,-6.0653,-6.066,-6.0665,-6.0927,0,-6.0214,-6.04,-6.034,-6.0528,-6.0606,-6.0495,-6.0589,-6.0607,-6.0587,-6.065,-6.0627,-6.07,-6.0591,-6.0606,-6.0684,-6.0663,-6.0801,-6.0643,-6.0732,-6.0736,-6.0727,-6.1079,-6.1145,-6.1393,-6.096,-6.0966,-6.097,0,-6.0551,-6.0593,-6.0789,-6.0785,-6.0815,-6.0902,-6.0947,-6.101,-6.1026,-6.1005,-6.1037,-6.0968,-6.1073,-6.0939,-6.1082,-6.0975,-6.1008,-6.1004,-6.1012,-6.1014,-6.0864,-6.1088,-6.147,-6.1506,-6.1022,-6.1018,-6.1014,0,-6.0814,-6.0921,-6.1051,-6.1067,-6.1067,-6.113,-6.1133,-6.1142,-6.1179,-6.1219,-6.1241,-6.1294,-6.1322,-6.1364,-6.1311,-6.1218,-6.146,-6.1322,-6.1444,-6.1445,-6.1497,-6.1494,-6.1887,-6.1525,-6.1525,-6.1524,-6.1523,0,-6.1117,-6.124,-6.1168,-6.1248,-6.1382,-6.1313,-6.1447,-6.1437,-6.1446,-6.152,-6.1429,-6.1501,-6.1428,-6.1494,-6.1453,-6.1576,-6.159,-6.1575,-6.1562,-6.1581,-6.1582,-6.1599,-6.1579,-6.1534,-6.1532,-6.153,-6.1528,0,-6.1432,-6.139,-6.1523,-6.1512,-6.1512,-6.1611,-6.1601,-6.1673,-6.1647,-6.1743,-6.1761,-6.172,-6.1792,-6.1744,-6.1817,-6.1789,-6.1949,-6.1914,-6.1943,-6.1932,-6.2055,-6.2043,-6.2469,-6.252,-6.213,-6.2134,-6.2137,0,-6.1626,-6.1718,-6.1717,-6.176,-6.1769,-6.184,-6.1877,-6.1812,-6.1854,-6.1879,-6.1948,-6.2012,-6.2059,-6.2179,-6.2155,-6.2209,-6.2173,-6.2319,-6.218,-6.2195,-6.217,-6.2164,-6.2171,-6.2345,-6.235,-6.2354,-6.2357,0,-6.1974,-6.1948,-6.2005,-6.2055,-6.2101,-6.2137,-6.2165,-6.2206,-6.2141,-6.2192,-6.2264,-6.2301,-6.2374,-6.2438,-6.2483,-6.2484,-6.241,-6.2401,-6.2431,-6.245,-6.2461,-6.2453,-6.2015,-6.2391,-6.2387,-6.2385,-6.2383,-6.2382,-6.2232,-6.2307,-6.2317,-6.2382,-6.2397,-6.2426,-6.2492,-6.2474,-6.2533,-6.2587,-6.2546,-6.2631,-6.2643,-6.2696,-6.2707,-6.2772,-6.2712,-6.2757,-6.2768,-6.2779,-6.2794,-6.2454,-6.278,-6.2779,-6.2778,-6.2778,-6.2777,0,-6.2571,-6.2572,-6.2633,-6.2675,-6.2727,-6.2653,-6.268,-6.2727,-6.2803,-6.2822,-6.287,-6.2951,-6.3012,-6.2994,-6.3048,-6.3103,-6.307,-6.3119,-6.3112,-6.3113,-6.2846,-6.2813,-6.3145,-6.3145,-6.3145,-6.3145,-6.3145,-6.3145,-6.2753,-6.2875,-6.2851,-6.2978,-6.2978,-6.306,-6.3082,-6.3107,-6.3121,-6.3216,-6.3266,-6.3254,-6.3256,-6.331,-6.3362,-6.3355,-6.3378,-6.3439,-6.3419,-6.3169,-6.3133,-6.3098,-6.3066,-6.3445,-6.3446,-6.368,-6.3682,-6.3684]},{"header":{"parameterUnit":"m.s-1","parameterCategory":1,"la1":30.2991,"la2":30.254,"lo1":-89.0895,"lo2":-89.0444,"dx":0.0017,"dy":0.0017,"nx":28,"ny":28,"refTime":"2022-11-12T09:00:00:Z","depth":0,"parameterNumber":3,"parameterNumberName":"V-component_of_WINDS"},"data":[0,0,0,0,0,0,0,0,0,0,0,0,0,0,0,0,0,0,0,0,0,0,0,0,0,0,0,0,0,0,0,0,0,0,0,0,0,0,0,0,0,0,0,0,0,0,0,0,0,0,0,0,0,0,0,0,0,0,-2.3935,-2.3936,0,-2.3957,-2.3957,-2.3957,-2.3958,-2.3958,-2.3958,-2.3958,-2.3978,-2.3978,-2.3979,0,0,0,0,0,0,0,0,0,0,0,0,0,-2.3892,-2.3893,-2.3935,-2.3936,-2.3936,-2.3957,-2.3957,-2.3957,-2.3958,-2.3958,-2.3958,-2.3958,-2.3977,-2.3978,-2.3979,0,0,0,0,0,0,0,0,0,0,0,0,0,-2.3912,-2.3893,-2.3935,-2.3939,-2.394,-2.3956,-2.3957,-2.3957,-2.3958,-2.3958,-2.3958,-2.3957,-2.3977,-2.3978,-2.3979,-2.3993,0,0,-2.3983,-2.3983,0,0,0,0,0,0,0,0,-2.3911,-2.3913,-2.3938,-2.3939,-2.394,-2.3954,-2.3949,-2.3969,-2.3959,-2.3951,-2.3958,-2.3957,-2.397,-2.3972,-2.3976,-2.3994,-2.3995,-2.3983,-2.3984,-2.3984,-2.3984,0,0,0,0,0,0,0,-2.3909,-2.3913,-2.3944,-2.3939,-2.3939,-2.3938,-2.3941,-2.3953,-2.3962,-2.3952,-2.3952,-2.3955,-2.397,-2.3975,-2.3977,-2.3995,-2.3983,-2.3984,-2.3985,-2.3985,-2.4022,-2.4022,0,0,0,0,0,0,-2.3908,-2.3911,-2.3943,-2.3944,-2.3924,-2.3939,-2.3942,-2.395,-2.3962,-2.3964,-2.3955,-2.3955,-2.3974,-2.3976,-2.3978,-2.3993,-2.3984,-2.3985,-2.3986,-2.4022,-2.4022,-2.4023,0,0,0,0,0,0,-2.3907,-2.3911,-2.3942,-2.3928,-2.3932,-2.3941,-2.3949,-2.3951,-2.3956,-2.3965,-2.3966,-2.3959,-2.3973,-2.3976,-2.3989,-2.3994,-2.3986,-2.3987,-2.4022,-2.4022,-2.4022,-2.4025,0,0,0,0,0,0,-2.3906,-2.391,-2.3917,-2.3928,-2.3933,-2.3954,-2.395,-2.3951,-2.3958,-2.3958,-2.3968,-2.397,-2.3973,-2.3987,-2.399,-2.3995,-2.3987,-2.4021,-2.4022,-2.4022,-2.4024,-2.4025,-2.4026,0,0,0,0,0,-2.3904,-2.3917,-2.3917,-2.3921,-2.3941,-2.3955,-2.3957,-2.3962,-2.3958,-2.3964,-2.3969,-2.3969,-2.3993,-2.3988,-2.3992,-2.3997,-2.4021,-2.4022,-2.4022,-2.4024,-2.4025,-2.4026,0,0,0,0,0,0,-2.3907,-2.3919,-2.3919,-2.3936,-2.3944,-2.3955,-2.3963,-2.3963,-2.3972,-2.3971,-2.3976,-2.3978,-2.399,-2.3995,-2.399,-2.401,-2.4006,-2.4008,-2.4006,-2.4008,-2.4008,-2.4007,-2.3988,0,0,0,0,0,-2.3909,-2.392,-2.393,-2.3944,-2.3948,-2.3954,-2.396,-2.3963,-2.3971,-2.3974,-2.3981,-2.3988,-2.3996,-2.4002,-2.4011,-2.4025,-2.4026,-2.403,-2.4031,-2.4031,-2.4032,-2.4037,-2.4039,-2.4025,-2.4025,-2.4025,0,0,-2.3915,-2.3923,-2.3929,-2.3944,-2.3951,-2.396,-2.3957,-2.3968,-2.3975,-2.3976,-2.3988,-2.3992,-2.4001,-2.4013,-2.4019,-2.4018,-2.4036,-2.4032,-2.4033,-2.4033,-2.4038,-2.404,-2.4041,-2.4025,-2.4025,-2.4025,0,0,-2.3929,-2.3937,-2.3949,-2.3955,-2.3964,-2.3968,-2.397,-2.398,-2.3983,-2.3995,-2.3995,-2.4002,-2.4018,-2.4023,-2.4028,-2.404,-2.404,-2.4043,-2.4048,-2.4053,-2.4054,-2.4055,-2.4058,-2.4059,-2.4044,-2.4044,-2.4044,0,-2.3935,-2.395,-2.3954,-2.3964,-2.397,-2.3971,-2.3981,-2.3986,-2.3998,-2.4001,-2.3999,-2.4017,-2.4023,-2.4035,-2.4038,-2.4042,-2.4044,-2.4042,-2.4053,-2.4054,-2.4055,-2.4058,-2.4059,-2.4044,-2.4044,-2.4044,-2.4044,0,-2.3955,-2.3966,-2.3973,-2.3984,-2.399,-2.4001,-2.4005,-2.401,-2.4011,-2.4014,-2.4025,-2.4032,-2.404,-2.4043,-2.4045,-2.4055,-2.4054,-2.4053,-2.4049,-2.4057,-2.4059,-2.406,-2.4044,-2.4044,-2.4044,-2.4044,0,0,-2.3974,-2.3985,-2.3987,-2.3991,-2.4,-2.4007,-2.4016,-2.4025,-2.4029,-2.4036,-2.4042,-2.4054,-2.4052,-2.4057,-2.4058,-2.4063,-2.407,-2.4061,-2.4061,-2.4061,-2.4079,-2.408,-2.4081,-2.4069,-2.407,-2.407,-2.4078,0,-2.3989,-2.4005,-2.4008,-2.4022,-2.403,-2.4029,-2.4036,-2.4042,-2.4044,-2.4051,-2.4053,-2.4061,-2.4058,-2.4061,-2.4065,-2.4068,-2.4073,-2.4068,-2.4074,-2.4074,-2.4072,-2.4083,-2.4084,-2.4092,-2.4079,-2.408,-2.408,0,-2.4009,-2.4015,-2.403,-2.4035,-2.4039,-2.4045,-2.4052,-2.4058,-2.4063,-2.4064,-2.4069,-2.4069,-2.4076,-2.4072,-2.4081,-2.4077,-2.4079,-2.4081,-2.4081,-2.4082,-2.4077,-2.4083,-2.4095,-2.4095,-2.4082,-2.4081,-2.4081,0,-2.4018,-2.4031,-2.4041,-2.4044,-2.4051,-2.4055,-2.4058,-2.4063,-2.4067,-2.4072,-2.4074,-2.408,-2.4083,-2.4087,-2.4088,-2.4086,-2.4096,-2.4093,-2.4097,-2.4097,-2.4099,-2.4099,-2.4111,-2.4102,-2.4102,-2.4102,-2.4102,0,-2.4034,-2.4043,-2.4045,-2.4051,-2.406,-2.4062,-2.407,-2.4072,-2.4076,-2.4081,-2.4081,-2.4086,-2.4087,-2.4092,-2.4092,-2.4099,-2.41,-2.4101,-2.4101,-2.41,-2.41,-2.4102,-2.4101,-2.4102,-2.4102,-2.4102,-2.4102,0,-2.4047,-2.4049,-2.406,-2.4064,-2.4066,-2.4072,-2.4075,-2.408,-2.4082,-2.4088,-2.409,-2.4092,-2.4097,-2.4098,-2.4105,-2.4105,-2.4112,-2.4112,-2.411,-2.411,-2.4113,-2.4113,-2.4126,-2.4127,-2.4118,-2.4118,-2.4118,0,-2.4057,-2.4063,-2.4068,-2.4071,-2.4074,-2.408,-2.4083,-2.4084,-2.4088,-2.4092,-2.4096,-2.4101,-2.4105,-2.4113,-2.4114,-2.4118,-2.4118,-2.4122,-2.4118,-2.4117,-2.4116,-2.4116,-2.4116,-2.4123,-2.4123,-2.4123,-2.4123,0,-2.4073,-2.4073,-2.4078,-2.4083,-2.4087,-2.4091,-2.4095,-2.4097,-2.4098,-2.4102,-2.4107,-2.411,-2.4115,-2.412,-2.4123,-2.4125,-2.4124,-2.4124,-2.4125,-2.4125,-2.4123,-2.4123,-2.4111,-2.4124,-2.4124,-2.4124,-2.4124,-2.4124,-2.4083,-2.4088,-2.4091,-2.4096,-2.4099,-2.4102,-2.4106,-2.4107,-2.4112,-2.4116,-2.4116,-2.4121,-2.4123,-2.4128,-2.413,-2.4133,-2.4131,-2.4133,-2.4133,-2.4133,-2.4133,-2.4123,-2.4133,-2.4133,-2.4133,-2.4133,-2.4133,0,-2.4098,-2.4099,-2.4104,-2.4109,-2.4112,-2.411,-2.4114,-2.4117,-2.4121,-2.4123,-2.4127,-2.4131,-2.4135,-2.4136,-2.4139,-2.4141,-2.414,-2.4141,-2.4141,-2.4141,-2.4135,-2.4133,-2.4142,-2.4142,-2.4142,-2.4142,-2.4142,-2.4142,-2.4106,-2.4113,-2.4113,-2.412,-2.4122,-2.4127,-2.4128,-2.413,-2.4132,-2.4137,-2.414,-2.414,-2.4141,-2.4144,-2.4147,-2.4147,-2.4148,-2.4149,-2.4149,-2.4143,-2.4142,-2.4141,-2.414,-2.4149,-2.4149,-2.4155,-2.4155,-2.4155]}]]